| time (UTC) | temp F | wind direction | speed MPH | gust MPH | rain 1hr in | rain 24hr in | rain mn in | humidity % | barometer mb |
| 20260507212427 | 75 | 169 | 2.0 | 5.0 | 0.00 | 0.00 | 0.00 | 29 | 1022.1 |
| 20260507211428 | 74 | 182 | 3.0 | 7.0 | 0.00 | 0.00 | 0.00 | 28 | 1022.3 |
| 20260507210429 | 75 | 172 | 4.0 | 8.0 | 0.00 | 0.00 | 0.00 | 27 | 1022.3 |
| 20260507204430 | 74 | 210 | 3.0 | 11.0 | 0.00 | 0.00 | 0.00 | 26 | 1022.4 |
| 20260507203427 | 74 | 222 | 4.0 | 12.0 | 0.00 | 0.00 | 0.00 | 25 | 1022.5 |
| 20260507203328 | 74 | 164 | 3.0 | 7.0 | 0.00 | 0.00 | 0.00 | 25 | 1022.4 |
| 20260507203229 | 73 | 163 | 2.0 | 7.0 | 0.00 | 0.00 | 0.00 | 25 | 1022.3 |
| 20260507202228 | 73 | 165 | 1.0 | 6.0 | 0.00 | 0.00 | 0.00 | 28 | 1022.5 |
| 20260507201327 | 73 | 292 | 0.0 | 2.0 | 0.00 | 0.00 | 0.00 | 33 | 1022.6 |
| 20260507201228 | 73 | 130 | 0.0 | 2.0 | 0.00 | 0.00 | 0.00 | 33 | 1022.7 |
| 20260507200246 | 71 | 162 | 1.0 | 7.0 | 0.00 | 0.00 | 0.00 | 38 | 1022.6 |
| 20260507195329 | 70 | 270 | 0.0 | 2.0 | 0.00 | 0.00 | 0.00 | 44 | 1022.5 |
| 20260507194328 | 69 | 180 | 0.0 | 2.0 | 0.00 | 0.00 | 0.00 | 46 | 1022.5 |
| 20260507194228 | 69 | 135 | 0.0 | 2.0 | 0.00 | 0.00 | 0.00 | 47 | 1022.5 |
| 20260507193227 | 69 | 11 | 3.0 | 5.0 | 0.00 | 0.00 | 0.00 | 47 | 1022.5 |
| 20260507193145 | 69 | 349 | 4.0 | 6.0 | 0.00 | 0.00 | 0.00 | 47 | 1022.5 |
| 20260507192129 | 68 | 112 | 0.0 | 3.0 | 0.00 | 0.00 | 0.00 | 50 | 1022.5 |
| 20260507191128 | 67 | 54 | 1.0 | 3.0 | 0.00 | 0.00 | 0.00 | 51 | 1022.6 |
| 20260507190129 | 68 | 34 | 1.0 | 6.0 | 0.00 | 0.00 | 0.00 | 51 | 1022.7 |
| 20260507190028 | 68 | 29 | 1.0 | 5.0 | 0.00 | 0.00 | 0.00 | 50 | 1022.7 |
| 20260507185029 | 68 | 11 | 4.0 | 6.0 | 0.00 | 0.00 | 0.00 | 50 | 1022.7 |
| 20260507184028 | 68 | 18 | 3.0 | 5.0 | 0.00 | 0.00 | 0.00 | 47 | 1022.8 |
| 20260507183030 | 69 | 68 | 0.0 | 2.0 | 0.00 | 0.00 | 0.00 | 42 | 1022.7 |
| 20260507182028 | 69 | 341 | 2.0 | 4.0 | 0.00 | 0.00 | 0.00 | 40 | 1022.7 |
| 20260507181030 | 69 | 48 | 2.0 | 4.0 | 0.00 | 0.00 | 0.00 | 41 | 1022.7 |
| 20260507180028 | 70 | 22 | 3.0 | 5.0 | 0.00 | 0.00 | 0.00 | 38 | 1022.7 |
| 20260507173028 | 69 | 106 | 0.0 | 1.0 | 0.00 | 0.00 | 0.00 | 41 | 1022.7 |
| 20260507172027 | 69 | 7 | 0.0 | 4.0 | 0.00 | 0.00 | 0.00 | 40 | 1022.7 |
| 20260507170028 | 70 | 8 | 2.0 | 3.0 | 0.00 | 0.00 | 0.00 | 41 | 1022.7 |
| 20260507165029 | 69 | 57 | 0.0 | 3.0 | 0.00 | 0.00 | 0.00 | 39 | 1022.7 |
| 20260507164028 | 68 | 135 | 1.0 | 2.0 | 0.00 | 0.00 | 0.00 | 45 | 1022.8 |
| 20260507162028 | 64 | 270 | 0.0 | 0.0 | 0.00 | 0.00 | 0.00 | 57 | 1022.9 |
| 20260507161028 | 63 | 270 | 0.0 | 0.0 | 0.00 | 0.00 | 0.00 | 59 | 1023.0 |
| 20260507160028 | 60 | 270 | 0.0 | 0.0 | 0.00 | 0.00 | 0.00 | 68 | 1023.1 |
| 20260507155928 | 60 | 270 | 0.0 | 0.0 | 0.00 | 0.00 | 0.00 | 69 | 1023.2 |
| 20260507154928 | 59 | 270 | 0.0 | 0.0 | 0.00 | 0.00 | 0.00 | 73 | 1023.1 |
| 20260507153926 | 57 | 270 | 0.0 | 0.0 | 0.00 | 0.00 | 0.00 | 78 | 1023.2 |
| 20260507152927 | 54 | 270 | 0.0 | 0.0 | 0.00 | 0.00 | 0.00 | 86 | 1023.3 |
| 20260507151928 | 51 | 270 | 0.0 | 0.0 | 0.00 | 0.00 | 0.00 | 89 | 1023.3 |
| 20260507151027 | 50 | 270 | 0.0 | 0.0 | 0.00 | 0.00 | 0.00 | 92 | 1023.2 |
| 20260507150032 | 47 | 270 | 0.0 | 0.0 | 0.00 | 0.00 | 0.00 | 92 | 1023.2 |
| 20260507145029 | 45 | 270 | 0.0 | 0.0 | 0.00 | 0.00 | 0.00 | 97 | 1023.2 |
| 20260507144128 | 43 | 270 | 0.0 | 0.0 | 0.00 | 0.00 | 0.00 | 99 | 1023.2 |
| 20260507142128 | 40 | 270 | 0.0 | 0.0 | 0.00 | 0.00 | 0.00 | 98 | 1022.9 |
| 20260507141147 | 39 | 270 | 0.0 | 0.0 | 0.00 | 0.00 | 0.00 | 98 | 1022.7 |
| 20260507140130 | 37 | 270 | 0.0 | 0.0 | 0.00 | 0.00 | 0.00 | 98 | 1022.6 |
| 20260507135226 | 36 | 270 | 0.0 | 0.0 | 0.00 | 0.00 | 0.00 | 98 | 1022.5 |
| 20260507134227 | 35 | 270 | 0.0 | 0.0 | 0.00 | 0.00 | 0.00 | 98 | 1022.5 |
| 20260507132228 | 35 | 270 | 0.0 | 0.0 | 0.00 | 0.00 | 0.00 | 98 | 1022.3 |
| 20260507131326 | 35 | 270 | 0.0 | 0.0 | 0.00 | 0.00 | 0.00 | 98 | 1022.3 |
| 20260507130328 | 35 | 270 | 0.0 | 0.0 | 0.00 | 0.00 | 0.00 | 97 | 1022.1 |
| 20260507125229 | 35 | 270 | 0.0 | 0.0 | 0.00 | 0.00 | 0.00 | 98 | 1022.0 |
| 20260507124244 | 35 | 270 | 0.0 | 0.0 | 0.00 | 0.00 | 0.00 | 98 | 1022.0 |
| 20260507123228 | 35 | 270 | 0.0 | 0.0 | 0.00 | 0.00 | 0.00 | 98 | 1022.0 |
| 20260507122228 | 35 | 270 | 0.0 | 0.0 | 0.00 | 0.00 | 0.00 | 98 | 1022.1 |
| 20260507121229 | 35 | 270 | 0.0 | 0.0 | 0.00 | 0.00 | 0.00 | 98 | 1022.1 |
| 20260507120229 | 35 | 270 | 0.0 | 0.0 | 0.00 | 0.00 | 0.00 | 98 | 1022.2 |
| 20260507113226 | 36 | 270 | 0.0 | 0.0 | 0.00 | 0.00 | 0.00 | 98 | 1022.2 |
| 20260507113127 | 36 | 270 | 0.0 | 0.0 | 0.00 | 0.00 | 0.00 | 98 | 1022.3 |
| 20260507112127 | 36 | 270 | 0.0 | 0.0 | 0.00 | 0.00 | 0.00 | 97 | 1022.3 |
| 20260507111128 | 36 | 270 | 0.0 | 0.0 | 0.00 | 0.00 | 0.00 | 98 | 1022.4 |
| 20260507110128 | 36 | 270 | 0.0 | 0.0 | 0.00 | 0.00 | 0.00 | 98 | 1022.3 |
| 20260507110029 | 36 | 270 | 0.0 | 0.0 | 0.00 | 0.00 | 0.00 | 98 | 1022.3 |
| 20260507105126 | 36 | 270 | 0.0 | 0.0 | 0.00 | 0.00 | 0.00 | 98 | 1022.3 |
| 20260507104126 | 37 | 270 | 0.0 | 0.0 | 0.00 | 0.00 | 0.00 | 98 | 1022.3 |
| 20260507103128 | 36 | 270 | 0.0 | 0.0 | 0.00 | 0.00 | 0.00 | 97 | 1022.3 |
| 20260507102227 | 36 | 270 | 0.0 | 0.0 | 0.00 | 0.00 | 0.00 | 98 | 1022.3 |
| 20260507101228 | 36 | 270 | 0.0 | 0.0 | 0.00 | 0.00 | 0.00 | 97 | 1022.3 |
| 20260507100226 | 37 | 270 | 0.0 | 0.0 | 0.00 | 0.00 | 0.00 | 96 | 1022.3 |
| 20260507094228 | 38 | 270 | 0.0 | 0.0 | 0.00 | 0.00 | 0.00 | 97 | 1022.5 |
| 20260507093227 | 37 | 270 | 0.0 | 0.0 | 0.00 | 0.00 | 0.00 | 97 | 1022.6 |
| 20260507092227 | 38 | 270 | 0.0 | 0.0 | 0.00 | 0.00 | 0.00 | 98 | 1022.8 |
| 20260507092128 | 38 | 270 | 0.0 | 0.0 | 0.00 | 0.00 | 0.00 | 97 | 1022.8 |
| 20260507091227 | 38 | 270 | 0.0 | 0.0 | 0.00 | 0.00 | 0.00 | 96 | 1022.7 |
| 20260507085227 | 38 | 270 | 0.0 | 0.0 | 0.00 | 0.00 | 0.00 | 97 | 1023.0 |
| 20260507083327 | 38 | 270 | 0.0 | 0.0 | 0.00 | 0.00 | 0.00 | 97 | 1023.1 |
| 20260507082328 | 39 | 270 | 0.0 | 0.0 | 0.00 | 0.00 | 0.00 | 97 | 1023.1 |
| 20260507081328 | 39 | 270 | 0.0 | 0.0 | 0.00 | 0.00 | 0.00 | 97 | 1023.1 |
| 20260507080327 | 39 | 270 | 0.0 | 0.0 | 0.00 | 0.00 | 0.00 | 97 | 1023.2 |
| 20260507075328 | 39 | 270 | 0.0 | 0.0 | 0.00 | 0.00 | 0.00 | 96 | 1023.2 |
| 20260507073227 | 39 | 270 | 0.0 | 0.0 | 0.00 | 0.00 | 0.00 | 96 | 1023.4 |
| 20260507072227 | 40 | 270 | 0.0 | 0.0 | 0.00 | 0.00 | 0.00 | 96 | 1023.5 |
| 20260507072125 | 40 | 270 | 0.0 | 0.0 | 0.00 | 0.00 | 0.00 | 97 | 1023.6 |
| 20260507071128 | 40 | 270 | 0.0 | 0.0 | 0.00 | 0.00 | 0.00 | 97 | 1023.5 |
| 20260507065216 | 40 | 270 | 0.0 | 0.0 | 0.00 | 0.00 | 0.00 | 95 | 1023.5 |
| 20260507065117 | 40 | 270 | 0.0 | 0.0 | 0.00 | 0.00 | 0.00 | 96 | 1023.4 |
| 20260507064214 | 41 | 270 | 0.0 | 0.0 | 0.00 | 0.00 | 0.00 | 96 | 1023.3 |
| 20260507062216 | 41 | 270 | 0.0 | 0.0 | 0.00 | 0.00 | 0.00 | 96 | 1023.0 |
| 20260507061216 | 41 | 270 | 0.0 | 0.0 | 0.00 | 0.00 | 0.00 | 96 | 1023.0 |
| 20260507060217 | 41 | 270 | 0.0 | 0.0 | 0.00 | 0.00 | 0.00 | 95 | 1023.0 |
| 20260507055214 | 41 | 270 | 0.0 | 0.0 | 0.00 | 0.00 | 0.00 | 94 | 1022.9 |
| 20260507055116 | 42 | 270 | 0.0 | 0.0 | 0.00 | 0.00 | 0.00 | 95 | 1023.0 |
| 20260507054115 | 42 | 270 | 0.0 | 0.0 | 0.00 | 0.00 | 0.00 | 95 | 1023.0 |
| 20260507053114 | 42 | 270 | 0.0 | 0.0 | 0.00 | 0.00 | 0.00 | 95 | 1023.0 |
| 20260507052118 | 43 | 270 | 0.0 | 0.0 | 0.00 | 0.00 | 0.00 | 95 | 1023.1 |
| 20260507052015 | 43 | 270 | 0.0 | 0.0 | 0.00 | 0.00 | 0.00 | 95 | 1023.2 |
| 20260507051017 | 43 | 270 | 0.0 | 0.0 | 0.00 | 0.00 | 0.00 | 95 | 1023.1 |
| 20260507050016 | 43 | 270 | 0.0 | 0.0 | 0.00 | 0.00 | 0.00 | 93 | 1023.1 |
| 20260507045016 | 44 | 270 | 0.0 | 0.0 | 0.00 | 0.00 | 0.00 | 94 | 1023.1 |
| 20260507044016 | 44 | 270 | 0.0 | 0.0 | 0.00 | 0.00 | 0.00 | 93 | 1023.2 |
| 20260507043015 | 45 | 270 | 0.0 | 0.0 | 0.00 | 0.00 | 0.00 | 92 | 1023.2 |
| 20260507042016 | 45 | 270 | 0.0 | 0.0 | 0.00 | 0.00 | 0.00 | 93 | 1023.2 |
| 20260507041914 | 45 | 270 | 0.0 | 0.0 | 0.00 | 0.00 | 0.00 | 93 | 1023.2 |
| 20260507040915 | 46 | 270 | 0.0 | 0.0 | 0.00 | 0.00 | 0.00 | 92 | 1023.2 |
| 20260507035931 | 46 | 270 | 0.0 | 0.0 | 0.00 | 0.00 | 0.00 | 92 | 1023.0 |
| 20260507034916 | 47 | 270 | 0.0 | 0.0 | 0.00 | 0.00 | 0.00 | 91 | 1022.9 |
| 20260507033915 | 47 | 270 | 0.0 | 0.0 | 0.00 | 0.00 | 0.00 | 90 | 1022.8 |
| 20260507033013 | 47 | 270 | 0.0 | 0.0 | 0.00 | 0.00 | 0.00 | 90 | 1022.7 |
| 20260507032014 | 48 | 270 | 0.0 | 0.0 | 0.00 | 0.00 | 0.00 | 89 | 1022.5 |
| 20260507031916 | 48 | 270 | 0.0 | 0.0 | 0.00 | 0.00 | 0.00 | 90 | 1022.5 |
| 20260507030916 | 49 | 270 | 0.0 | 0.0 | 0.00 | 0.00 | 0.00 | 88 | 1022.5 |
| 20260507025915 | 49 | 270 | 0.0 | 0.0 | 0.00 | 0.00 | 0.00 | 88 | 1022.5 |
| 20260507024916 | 50 | 270 | 0.0 | 0.0 | 0.00 | 0.00 | 0.00 | 87 | 1022.5 |
| 20260507024816 | 50 | 270 | 0.0 | 0.0 | 0.00 | 0.00 | 0.00 | 86 | 1022.4 |
| 20260507023816 | 51 | 270 | 0.0 | 0.0 | 0.00 | 0.00 | 0.00 | 86 | 1022.3 |
| 20260507023715 | 51 | 270 | 0.0 | 0.0 | 0.00 | 0.00 | 0.00 | 86 | 1022.3 |
| 20260507022716 | 52 | 292 | 0.0 | 0.0 | 0.00 | 0.00 | 0.00 | 83 | 1022.3 |
| 20260507021714 | 53 | 292 | 0.0 | 0.0 | 0.00 | 0.00 | 0.00 | 82 | 1022.2 |
| 20260507015815 | 55 | 292 | 0.0 | 0.0 | 0.00 | 0.00 | 0.00 | 78 | 1022.1 |
| 20260507015714 | 55 | 292 | 0.0 | 0.0 | 0.00 | 0.00 | 0.00 | 77 | 1022.1 |
| 20260507015615 | 55 | 292 | 0.0 | 0.0 | 0.00 | 0.00 | 0.00 | 76 | 1022.1 |
| 20260507014615 | 57 | 292 | 0.0 | 0.0 | 0.00 | 0.00 | 0.00 | 72 | 1022.0 |
| 20260507013616 | 59 | 292 | 0.0 | 1.0 | 0.00 | 0.00 | 0.00 | 66 | 1022.1 |
| 20260507012615 | 62 | 22 | 0.0 | 1.0 | 0.00 | 0.00 | 0.00 | 62 | 1021.9 |
| 20260507011615 | 63 | 9 | 2.0 | 5.0 | 0.00 | 0.00 | 0.00 | 61 | 1021.9 |
| 20260507010615 | 62 | 45 | 0.0 | 0.0 | 0.00 | 0.00 | 0.00 | 61 | 1021.7 |
| 20260507005616 | 64 | 101 | 0.0 | 0.0 | 0.00 | 0.00 | 0.00 | 60 | 1021.7 |
| 20260507004615 | 64 | 135 | 0.0 | 0.0 | 0.00 | 0.00 | 0.00 | 59 | 1021.7 |
| 20260507004516 | 64 | 204 | 0.0 | 1.0 | 0.00 | 0.00 | 0.00 | 58 | 1021.7 |
| 20260507003614 | 64 | 333 | 0.0 | 2.0 | 0.00 | 0.00 | 0.00 | 59 | 1021.7 |
| 20260507001714 | 65 | 129 | 1.0 | 3.0 | 0.00 | 0.00 | 0.00 | 58 | 1021.5 |
| 20260507001615 | 65 | 114 | 1.0 | 3.0 | 0.00 | 0.00 | 0.00 | 57 | 1021.4 |
| 20260507000615 | 65 | 360 | 1.0 | 4.0 | 0.00 | 0.00 | 0.00 | 58 | 1021.3 |
| 20260506235615 | 64 | 345 | 1.0 | 3.0 | 0.00 | 0.00 | 0.00 | 58 | 1021.4 |
| 20260506233616 | 65 | 70 | 0.0 | 4.0 | 0.00 | 0.00 | 0.00 | 59 | 1021.2 |
| 20260506232617 | 64 | 9 | 1.0 | 4.0 | 0.00 | 0.00 | 0.00 | 58 | 1021.2 |
| 20260506231615 | 64 | 360 | 1.0 | 5.0 | 0.00 | 0.00 | 0.00 | 58 | 1021.2 |
| 20260506225516 | 64 | 89 | 0.0 | 3.0 | 0.00 | 0.00 | 0.00 | 59 | 1021.3 |
| 20260506224515 | 64 | 355 | 4.0 | 6.0 | 0.00 | 0.00 | 0.00 | 59 | 1021.4 |
| 20260506223613 | 64 | 58 | 1.0 | 3.0 | 0.00 | 0.00 | 0.00 | 60 | 1021.5 |
| 20260506221716 | 64 | 175 | 1.0 | 4.0 | 0.00 | 0.00 | 0.00 | 58 | 1021.5 |
| 20260506215913 | 62 | 113 | 3.0 | 6.0 | 0.00 | 0.00 | 0.00 | 61 | 1021.7 |
| 20260506214914 | 62 | 130 | 2.0 | 5.0 | 0.00 | 0.00 | 0.00 | 61 | 1021.8 |
| 20260506213916 | 62 | 25 | 4.0 | 6.0 | 0.00 | 0.01 | 0.00 | 62 | 1021.9 |